Regional Weather Roundup
Issued by NWS

Home | Current Version | Previous Version | Text Only | Print | Product List | Glossary On
Versions: 1 2 3 4 5 6 7 8 9 10 11 12 13 14 15 16 17 18 19 20 21 22 23 24 25 26 27 28 29 30 31 32 33 34 35 36 37 38 39 40 41 42 43 44 45 46 47 48 49 50
000
ASPQ40 PGUM 021010
RWRPQ
WEATHER ROUNDUP FOR THE MARIANAS AND MICRONESIA
NATIONAL WEATHER SERVICE TIYAN GU
800 PM CHST WED SEP 02 2015

GUZ001>004-021100-
MARIANA ISLANDS-

CITY           SKY/WX    TMP DP  RH WIND       PRES   REMARKS
GUAM AIRPORT   CLEAR     81  75  83 NE6       29.91R
ANDERSEN AFB   CLEAR     79  75  89 NE6       29.92R
ROTA AIRPORT   MOCLDY    77  75  94 VRB5      29.91R
TINIAN AP      PTCLDY    79  75  89 CALM      29.87R
SAIPAN AP      CLEAR     81  75  83 N3        29.89R

$$

PMZ161-021100-
REPUBLIC OF PALAU-

CITY           SKY/WX    TMP DP  RH WIND       PRES   REMARKS
KOROR AP       MOCLDY    82  77  83 SW3       29.89R HX  91
KOROR WSO      CLOUDY    82  77  83 W7        29.88S HX  91

$$

PMZ171>174-021100-
FEDERATED STATES OF MICRONESIA-

CITY           SKY/WX    TMP DP  RH WIND       PRES   REMARKS
YAP AIRPORT    CLOUDY    82  77  83 VRB3      29.87R HX  91
CHUUK AP       LGT RAIN  81  77  89 NW14      29.85S
POHNPEI AP     NOT AVBL
POHNPEI WSO    CLOUDY    79  75  89 SW10      29.90R
KOSRAE AP      NOT AVBL

$$

PMZ181-021100-
REPUBLIC OF THE MARSHALL ISLANDS-

CITY           SKY/WX    TMP DP  RH WIND       PRES   REMARKS
KWAJALEIN AP   MOCLDY    82  77  83 S15       29.93R HX  91
MAJURO AP      NOT AVBL
MAJURO WSO     MOCLDY    82  77  83 SW12      29.92R HX  91

$$



USA.gov is the U.S. government's official web portal to all federal, state and local government web resources and services.